1501545600.09,27278,21.06,75012.5,9.09,-15.67,-16.17,0,*71
1501545601.33,27279,21.06,75014.0,9.05,-15.71,-16.17,0,*7B
1501545602.57,27280,21.06,75012.3,9.05,-15.95,-16.31,0,*73
1501545603.79,27281,21.06,75010.5,9.05,-15.95,-16.41,0,*75
1501545605.01,27282,21.06,75012.0,9.05,-15.99,-16.41,0,*7A
1501545606.22,27283,21.06,75014.3,9.05,-15.95,-16.45,0,*73
1501545607.42,27284,21.06,75012.5,9.09,-16.03,-16.41,0,*70
1501545608.66,27285,21.06,75012.0,9.05,-16.09,-16.45,0,*73
1501545609.9,27286,21.06,75010.8,9.09,-16.13,-16.55,0,*76
1501545611.15,27287,21.06,75014.8,9.05,-16.17,-16.59,0,*73
1501545612.4,27288,21.06,75012.0,9.05,-16.09,-16.55,0,*7F
1501545613.65,27289,21.06,75012.5,9.05,-16.13,-16.55,0,*75
1501545614.89,27290,21.06,75012.5,9.05,-16.13,-16.45,0,*7C
1501545616.14,27291,21.06,75008.5,9.05,-16.09,-16.59,0,*7B
1501545617.37,27292,21.06,75010.3,9.09,-16.23,-16.55,0,*70
1501545618.64,27293,21.06,75008.8,9.05,-16.17,-16.69,0,*75
1501545619.91,27294,21.06,75014.8,9.05,-16.27,-16.69,0,*71
1501545621.15,27295,21.06,75008.8,9.05,-16.09,-16.45,0,*72
1501545622.36,27296,21.06,75014.3,9.05,-15.99,-16.41,0,*7F
1501545623.58,27297,21.06,75012.5,9.05,-15.99,-16.55,0,*7B
1501545624.83,27298,21.06,75012.3,9.05,-16.17,-16.59,0,*7D
1501545626.09,27299,21.06,75014.5,9.05,-16.27,-16.69,0,*7C
1501545627.36,27300,21.06,75014.3,9.05,-16.27,-16.69,0,*7D
1501545628.61,27301,21.06,75010.5,9.05,-16.27,-16.75,0,*71
1501545629.86,27302,21.06,75012.5,9.05,-16.27,-16.75,0,*72
1501545631.11,27303,21.06,75012.8,9.05,-16.27,-16.75,0,*73
1501545632.38,27304,21.06,75014.3,9.05,-16.17,-16.69,0,*7A
1501545633.6,27305,21.06,75014.0,9.03,-16.17,-16.75,0,*70
1501545634.85,27306,21.06,75014.0,9.01,-16.31,-16.75,0,*75
1501545636.07,27307,21.06,75012.5,9.03,-16.31,-16.79,0,*7A
1501545637.31,27308,21.06,75012.8,9.03,-16.31,-16.65,0,*78
1501545638.56,27309,21.06,75010.3,9.03,-16.17,-16.65,0,*7D
1501545639.79,27310,21.06,75014.8,9.03,-16.13,-16.59,0,*7E
1501545641.03,27311,21.06,75014.3,9.01,-15.99,-16.51,0,*74
1501545642.27,27312,21.06,75006.3,9.03,-16.13,-16.51,0,*74
1501545643.5,27313,21.06,75008.8,9.03,-16.17,-16.59,0,*79
1501545644.73,27314,21.06,75008.8,9.03,-16.13,-16.59,0,*7A
1501545645.91,27315,21.06,75008.8,9.03,-15.99,-16.45,0,*77
1501545647.12,27316,21.06,75016.0,9.05,-15.99,-16.41,0,*76
1501545648.3,27317,21.06,75012.8,9.03,-15.99,-16.45,0,*75
1501545649.52,27318,21.06,75010.8,9.03,-16.03,-16.51,0,*7F
1501545650.74,27319,21.06,75012.0,9.05,-15.95,-16.41,0,*75
1501545651.96,27320,21.06,75014.3,9.03,-15.89,-16.37,0,*75
1501545653.19,27321,21.06,75008.5,9.05,-15.99,-16.51,0,*73
1501545654.42,27322,21.06,75012.0,9.03,-16.13,-16.59,0,*7F
1501545655.65,27323,21.06,75008.3,9.03,-16.13,-16.59,0,*7E
1501545656.86,27324,21.06,75010.8,9.03,-16.03,-16.51,0,*70
1501545658.11,27325,21.06,75008.8,9.03,-16.13,-16.51,0,*70
1501545659.34,27326,21.06,75010.0,9.03,-16.17,-16.59,0,*7F
1501545660.52,27327,21.06,75010.5,9.03,-15.99,-16.45,0,*76
1501545661.79,27328,21.06,75008.5,9.01,-15.85,-16.23,0,*76
1501545663.01,27329,21.06,75012.0,9.03,-15.89,-16.37,0,*7C
1501545664.23,27330,21.13,75014.0,9.03,-15.89,-16.37,0,*74
1501545665.42,27331,21.06,75010.8,9.03,-16.03,-16.45,0,*71
1501545666.6,27332,21.06,75010.8,9.03,-15.99,-16.45,0,*72
1501545667.82,27333,21.06,75010.3,9.03,-16.03,-16.51,0,*76
1501545669.07,27334,21.06,75008.0,9.05,-16.17,-16.59,0,*7A
1501545670.27,27335,21.06,75012.0,9.05,-15.99,-16.45,0,*73
1501545671.49,27336,21.06,75012.5,9.03,-16.13,-16.45,0,*77
1501545672.72,27337,21.06,75008.0,9.03,-16.13,-16.59,0,*7B
1501545673.95,27338,21.06,75010.8,9.03,-16.17,-16.75,0,*7E
1501545675.18,27339,21.06,75008.8,9.05,-15.99,-16.31,0,*7C
1501545676.39,27340,21.06,75010.3,9.01,-15.99,-16.45,0,*75
1501545677.64,27341,21.06,75012.0,9.01,-16.03,-16.51,0,*71
1501545678.83,27342,21.06,75018.3,9.03,-16.03,-16.45,0,*75
1501545680.07,27343,21.06,75014.8,9.03,-15.89,-16.31,0,*76
1501545681.26,27344,21.06,75012.0,9.03,-15.99,-16.37,0,*76
1501545682.44,27345,21.06,75018.5,9.03,-15.99,-16.45,0,*72
1501545683.68,27346,21.06,75014.5,9.03,-16.13,-16.51,0,*75
1501545684.87,27347,21.06,75012.0,9.03,-15.99,-16.45,0,*70
1501545686.05,27348,21.06,75016.3,9.03,-15.99,-16.45,0,*7F
1501545687.29,27349,21.06,75014.5,9.03,-15.85,-16.31,0,*70
1501545688.48,27350,21.06,75012.8,9.03,-16.03,-16.45,0,*76
1501545689.7,27351,21.06,75016.0,9.05,-15.95,-16.41,0,*79
1501545690.91,27352,21.06,75014.5,9.05,-15.99,-16.45,0,*72
1501545692.18,27353,21.06,75016.0,9.01,-16.17,-16.65,0,*70
1501545693.41,27354,21.06,75014.5,9.03,-16.17,-16.59,0,*7A
1501545694.63,27355,21.06,75014.5,9.05,-15.95,-16.41,0,*7D
1501545695.86,27356,21.06,75012.0,9.05,-15.99,-16.31,0,*75
1501545697.11,27357,21.06,75010.0,9.03,-16.13,-16.51,0,*75
1501545698.35,27358,21.06,75014.8,9.05,-16.09,-16.45,0,*72
1501545699.63,27359,21.06,75012.0,9.01,-16.17,-16.51,0,*7D
1501545700.81,27360,21.06,75012.0,9.03,-15.99,-16.41,0,*71
1501545702.06,27361,21.06,75012.8,9.03,-16.13,-16.51,0,*70
1501545703.33,27362,21.06,75012.5,9.01,-16.13,-16.51,0,*71
1501545704.58,27363,21.06,75010.5,9.05,-16.13,-16.55,0,*70
1501545705.81,27364,21.06,75012.5,9.03,-16.13,-16.59,0,*7D
1501545707.06,27365,21.06,75014.3,9.03,-16.13,-16.65,0,*73
1501545708.29,27366,21.06,75012.5,9.03,-16.23,-16.59,0,*7C
1501545709.5,27367,21.06,75012.3,9.03,-16.31,-16.79,0,*7C
1501545710.72,27368,21.06,75010.3,9.03,-16.31,-16.79,0,*73
1501545711.94,27369,21.06,75012.0,9.03,-16.23,-16.75,0,*7D
1501545713.13,27370,21.06,75010.5,9.03,-16.03,-16.45,0,*74
1501545714.35,27371,21.06,75012.8,9.01,-15.99,-16.37,0,*72
1501545715.56,27372,21.06,75012.5,9.01,-15.99,-16.37,0,*71
1501545716.84,27373,21.06,75012.5,9.01,-15.85,-16.31,0,*7B
1501545718.08,27374,21.06,75010.8,9.03,-15.89,-16.31,0,*72
1501545719.33,27375,21.06,75012.8,9.01,-15.89,-16.37,0,*77
1501545720.54,27376,21.06,75016.3,9.03,-16.03,-16.51,0,*77
1501545721.75,27377,21.06,75012.3,9.05,-15.99,-16.45,0,*75
1501545723.0,27378,21.06,75012.0,9.03,-16.17,-16.65,0,*7B
1501545724.27,27379,21.06,75010.0,9.01,-16.13,-16.65,0,*7C
1501545725.49,27380,21.06,75014.5,9.01,-16.03,-16.45,0,*79
1501545726.74,27381,21.06,75008.0,9.01,-15.89,-16.37,0,*7C
1501545727.93,27382,21.06,75014.0,9.03,-15.99,-16.37,0,*7C
1501545729.16,27383,21.06,75008.8,9.03,-16.13,-16.59,0,*74
1501545730.37,27384,21.06,75012.0,9.03,-16.03,-16.51,0,*7A
1501545731.62,27385,21.06,75010.8,9.05,-16.09,-16.55,0,*73
1501545732.89,27386,21.06,75008.0,9.01,-16.23,-16.65,0,*7F
1501545734.15,27387,21.06,75010.0,9.01,-16.13,-16.59,0,*72
1501545735.4,27388,21.06,75012.8,9.01,-16.31,-16.75,0,*73
1501545736.66,27389,21.06,75012.5,9.01,-16.13,-16.59,0,*7C
1501545737.88,27390,21.06,75008.5,9.01,-16.03,-16.45,0,*78
1501545739.06,27391,21.06,75010.5,9.03,-15.99,-16.45,0,*7B
1501545740.31,27392,21.06,75010.5,9.01,-16.03,-16.51,0,*7F
1501545741.55,27393,21.06,75012.0,9.01,-16.03,-16.51,0,*7E
1501545742.77,27394,21.06,75010.0,9.01,-16.03,-16.45,0,*7C
1501545743.95,27395,21.06,75012.3,9.03,-15.99,-16.45,0,*7F
1501545745.23,27396,21.06,75012.3,9.01,-15.85,-16.23,0,*73
1501545746.48,27397,21.06,75014.5,9.01,-15.75,-16.23,0,*7D
1501545747.73,27398,21.06,75010.8,9.01,-15.75,-16.23,0,*72
1501545748.98,27399,21.06,75012.0,9.01,-15.71,-16.17,0,*70
1501545750.2,27400,21.06,75014.3,9.03,-15.75,-16.23,0,*76
1501545751.45,27401,21.06,75012.8,9.03,-15.89,-16.31,0,*77
1501545752.66,27402,21.06,75014.0,9.05,-15.95,-16.41,0,*78
1501545753.94,27403,21.06,75012.0,9.01,-15.85,-16.23,0,*78
1501545755.21,27404,21.06,75016.5,9.01,-15.85,-16.23,0,*7F
1501545756.46,27405,21.06,75014.0,9.01,-15.89,-16.45,0,*72
1501545757.66,27406,21.06,75016.5,9.05,-15.99,-16.45,0,*74
1501545758.85,27407,21.06,75014.5,9.03,-15.99,-16.45,0,*73
1501545760.06,27408,21.06,75016.5,9.01,-15.99,-16.45,0,*7E
1501545761.28,27409,21.06,75012.0,9.01,-16.03,-16.45,0,*7F
1501545762.5,27410,21.06,75012.3,9.03,-16.17,-16.59,0,*7D
1501545763.73,27411,21.06,75016.5,9.03,-16.17,-16.59,0,*7C
1501545764.97,27412,21.06,75014.8,9.03,-16.23,-16.65,0,*77
1501545766.2,27413,21.06,75018.5,9.03,-16.13,-16.59,0,*7A
1501545767.45,27414,21.06,75016.3,9.01,-16.13,-16.45,0,*72
1501545768.69,27415,21.06,75012.3,9.05,-16.03,-16.51,0,*73
1501545769.96,27416,21.06,75016.5,9.01,-16.17,-16.65,0,*76
1501545771.22,27417,21.06,75018.8,9.01,-16.17,-16.75,0,*76
1501545772.45,27418,21.06,75016.8,9.01,-16.03,-16.59,0,*72
1501545773.7,27419,21.06,75012.3,8.99,-16.17,-16.65,0,*79
1501545774.97,27420,21.06,75018.3,9.01,-16.17,-16.65,0,*73
1501545776.23,27421,21.06,75018.3,9.01,-16.13,-16.59,0,*79
1501545777.49,27422,21.06,75016.8,9.01,-16.13,-16.59,0,*7A
1501545778.76,27423,21.06,75014.8,9.01,-16.13,-16.51,0,*73
1501545780.02,27424,21.06,75012.0,9.01,-16.13,-16.59,0,*7C
1501545781.3,27425,21.06,75016.3,9.01,-16.13,-16.65,0,*72
1501545782.51,27426,21.06,75012.8,9.01,-15.99,-16.45,0,*72
1501545783.79,27427,21.06,75018.5,9.01,-16.13,-16.51,0,*77
1501545785.01,27428,21.06,75014.5,9.01,-15.99,-16.59,0,*71
1501545786.28,27429,21.06,75014.0,9.01,-15.89,-16.31,0,*7F
1501545787.53,27430,21.06,75014.0,9.01,-15.89,-16.37,0,*71
1501545788.74,27431,21.06,75012.3,9.01,-15.99,-16.37,0,*71
1501545789.96,27432,21.06,75014.3,9.01,-15.99,-16.45,0,*77
1501545791.2,27433,21.06,75010.8,9.01,-15.89,-16.37,0,*72
1501545792.42,27434,21.06,75012.0,9.01,-15.99,-16.45,0,*71
1501545793.64,27435,21.06,75014.3,9.01,-16.03,-16.37,0,*75
1501545794.85,27436,21.06,75014.3,9.01,-15.99,-16.45,0,*73
1501545796.1,27437,21.06,75008.8,9.01,-16.03,-16.51,0,*77
1501545797.33,27438,21.06,75012.0,9.01,-15.99,-16.51,0,*78
1501545798.55,27439,21.06,75010.8,9.01,-15.99,-16.37,0,*79
1501545799.74,27440,21.06,75010.0,8.99,-15.95,-16.37,0,*7B
1501545800.99,27441,21.06,75008.3,9.01,-15.89,-16.37,0,*77
1501545802.24,27442,21.06,75010.5,9.01,-15.89,-16.37,0,*74
1501545803.48,27443,21.06,75014.0,9.01,-16.03,-16.51,0,*74
1501545804.73,27444,21.06,75010.0,9.01,-16.03,-16.51,0,*73
1501545805.98,27445,21.06,75008.0,9.01,-15.89,-16.37,0,*73
1501545807.25,27446,21.06,75014.5,9.01,-15.85,-16.31,0,*7A
1501545808.47,27447,21.06,75010.5,9.01,-15.75,-16.37,0,*72
1501545809.73,27448,21.06,75014.0,9.01,-15.75,-16.17,0,*7F
1501545811.0,27449,21.06,75008.8,9.01,-15.85,-16.23,0,*76
1501545812.28,27450,21.06,75010.5,9.01,-15.89,-16.51,0,*77
1501545813.47,27451,21.06,75012.3,9.03,-16.03,-16.45,0,*70
1501545814.68,27452,21.06,75008.3,9.01,-15.99,-16.45,0,*71
1501545815.89,27453,21.06,75012.0,9.03,-16.03,-16.51,0,*77
1501545817.11,27454,21.06,75010.5,9.01,-16.03,-16.45,0,*77
1501545818.3,27455,21.06,75012.8,9.03,-16.03,-16.45,0,*74
1501545819.54,27456,21.06,75014.3,9.01,-15.99,-16.51,0,*70
1501545820.72,27457,21.06,75012.5,9.03,-15.99,-16.45,0,*76
1501545821.93,27458,21.06,75012.0,9.03,-15.99,-16.31,0,*7A
1501545823.15,27459,21.06,75012.5,9.01,-15.99,-16.37,0,*7F
1501545824.39,27460,21.06,75008.8,9.01,-16.03,-16.51,0,*75
1501545825.64,27461,21.06,75014.3,9.03,-16.13,-16.51,0,*77
1501545826.85,27462,21.06,75012.0,9.01,-15.99,-16.37,0,*77
1501545828.1,27463,21.06,75014.0,9.01,-15.89,-16.37,0,*77
1501545829.34,27464,21.06,75014.5,9.01,-15.99,-16.31,0,*77
1501545830.56,27465,21.06,75018.5,9.03,-15.89,-16.37,0,*73
1501545831.81,27466,21.06,75018.8,9.03,-15.89,-16.31,0,*76
1501545833.05,27467,21.06,75016.0,9.01,-15.89,-16.37,0,*73
1501545834.3,27468,21.06,75018.0,9.01,-15.89,-16.37,0,*7C
1501545835.53,27469,21.06,75014.3,9.01,-16.03,-16.59,0,*74
1501545836.78,27470,21.06,75012.3,9.01,-16.03,-16.51,0,*74
1501545838.01,27471,21.06,75012.5,9.01,-15.99,-16.51,0,*75
1501545839.24,27472,21.06,75016.3,9.03,-16.13,-16.59,0,*7D
1501545840.47,27473,21.06,75014.0,9.03,-16.23,-16.75,0,*71
1501545841.74,27474,21.06,75012.3,9.01,-16.23,-16.65,0,*75
1501545842.96,27475,21.06,75018.8,9.01,-16.03,-16.45,0,*74
1501545844.17,27476,21.06,75016.8,9.03,-16.03,-16.51,0,*70
1501545845.41,27477,21.06,75014.0,9.01,-15.99,-16.31,0,*75
1501545846.63,27478,21.06,75012.5,9.03,-16.03,-16.51,0,*7E
1501545847.89,27479,21.06,75012.3,9.01,-16.13,-16.59,0,*74
1501545849.1,27480,21.06,75010.3,9.03,-15.99,-16.51,0,*79
1501545850.31,27481,21.06,75010.5,9.01,-15.99,-16.45,0,*7F
1501545851.56,27482,21.06,75008.0,9.01,-15.89,-16.37,0,*78
1501545852.83,27483,21.06,75010.8,9.01,-15.85,-16.31,0,*73
1501545854.08,27484,21.06,75012.0,9.01,-16.03,-16.51,0,*7F
1501545855.33,27485,21.06,75010.3,9.01,-16.17,-16.59,0,*73
1501545856.61,27486,21.06,75012.0,9.01,-16.17,-16.65,0,*7F
1501545857.87,27487,21.06,75008.3,9.01,-16.13,-16.59,0,*75
1501545859.08,27488,21.06,75010.8,9.03,-15.99,-16.51,0,*71
1501545860.32,27489,21.06,75008.5,9.03,-15.89,-16.31,0,*77
1501545861.57,27490,21.06,75008.8,9.01,-15.71,-16.17,0,*7E
1501545862.83,27491,21.06,75008.3,9.01,-15.75,-16.13,0,*7F
1501545864.05,27492,21.06,75012.0,9.03,-15.63,-16.13,0,*79
1501545865.3,27493,21.06,75008.8,9.01,-15.71,-16.17,0,*7D
1501545866.56,27494,21.06,75012.0,9.01,-15.75,-16.17,0,*7E
1501545867.83,27495,21.06,75014.5,9.01,-15.85,-16.31,0,*74
1501545869.08,27496,21.06,75010.3,9.01,-15.89,-16.37,0,*7D
1501545870.32,27497,21.06,75012.8,9.03,-15.89,-16.51,0,*7E
1501545871.5,27498,21.06,75010.0,9.03,-15.99,-16.45,0,*75
1501545872.75,27499,21.06,75008.5,9.01,-15.85,-16.45,0,*7B
1501545873.97,27500,21.06,75014.5,9.03,-15.89,-16.37,0,*71
1501545875.18,27501,21.06,75012.5,9.03,-15.85,-16.37,0,*7C
1501545876.46,27502,21.06,75010.0,9.01,-15.89,-16.31,0,*77
1501545877.7,27503,21.06,75008.5,9.03,-15.85,-16.31,0,*78
1501545878.92,27504,21.06,75010.8,9.03,-15.75,-16.31,0,*70
1501545880.17,27505,21.06,75012.3,9.03,-15.89,-16.31,0,*72
1501545881.39,27506,21.06,75010.3,9.03,-15.85,-16.37,0,*7B
1501545882.63,27507,21.06,75014.5,9.03,-15.85,-16.23,0,*7F
1501545883.9,27508,21.06,75010.3,9.01,-15.85,-16.31,0,*71
1501545885.15,27509,21.06,75012.3,9.01,-15.89,-16.37,0,*7A
1501545886.34,27510,21.06,75012.3,9.03,-15.99,-16.45,0,*74
1501545887.52,27511,21.06,75012.3,9.03,-15.99,-16.37,0,*70
1501545888.73,27512,21.06,75014.3,9.01,-15.99,-16.45,0,*74
1501545889.95,27513,21.06,75016.0,9.03,-16.03,-16.51,0,*72
1501545891.16,27514,21.06,75012.8,9.01,-15.99,-16.45,0,*72
1501545892.43,27515,21.06,75014.0,9.01,-15.89,-16.31,0,*71
1501545893.68,27516,21.06,75014.8,9.01,-15.89,-16.37,0,*74
1501545894.96,27517,21.06,75012.5,9.01,-15.85,-16.31,0,*7F
1501545896.17,27518,21.06,75010.5,9.03,-15.89,-16.45,0,*7D
1501545897.42,27519,21.06,75014.0,9.01,-16.03,-16.51,0,*7A
1501545898.66,27520,21.06,75012.8,9.01,-15.85,-16.45,0,*78
1501545899.86,27521,21.06,75014.0,9.03,-15.75,-16.37,0,*71
1501545901.08,27522,21.06,75014.0,9.03,-15.75,-16.17,0,*70
1501545902.31,27523,21.06,75012.3,9.03,-15.75,-16.17,0,*71
1501545903.59,27524,21.06,75012.3,9.01,-15.85,-16.23,0,*7C
1501545904.8,27525,21.06,75012.3,9.03,-15.89,-16.37,0,*76
1501545906.08,27526,21.06,75012.5,9.01,-15.85,-16.31,0,*7D
1501545907.3,27527,21.06,75012.5,9.03,-15.71,-16.23,0,*76
1501545908.52,27528,21.06,75010.3,9.03,-15.71,-16.13,0,*7A
1501545909.76,27529,21.06,75014.0,9.03,-15.85,-16.23,0,*73
1501545910.96,27530,21.06,75012.3,9.03,-15.75,-16.37,0,*71
1501545912.17,27531,21.06,75012.0,9.03,-15.85,-16.37,0,*7F
1501545913.39,27532,21.06,75014.3,9.03,-15.89,-16.45,0,*75
1501545914.66,27533,21.06,75014.0,9.01,-15.89,-16.31,0,*75
1501545915.88,27534,21.06,75010.8,9.03,-15.89,-16.45,0,*73
1501545917.12,27535,21.06,75010.0,9.05,-15.95,-16.31,0,*7A
1501545918.36,27536,21.06,75010.8,9.03,-15.85,-16.31,0,*7E
1501545919.61,27537,21.06,75008.3,9.01,-15.89,-16.37,0,*77
1501545920.79,27538,21.06,75012.3,9.03,-15.99,-16.45,0,*7E
1501545922.0,27539,21.06,75012.8,9.05,-15.99,-16.45,0,*79
1501545923.21,27540,21.06,75012.3,9.03,-15.99,-16.51,0,*74
1501545924.42,27541,21.06,75012.5,9.01,-15.99,-16.45,0,*72
1501545925.67,27542,21.06,75014.0,9.05,-16.09,-16.55,0,*7E
1501545926.88,27543,21.06,75014.5,9.05,-15.99,-16.45,0,*74
1501545928.06,27544,21.06,75012.3,9.03,-15.99,-16.45,0,*75
1501545929.25,27545,21.06,75014.5,9.03,-16.03,-16.45,0,*74
1501545930.44,27546,21.06,75014.0,9.03,-16.03,-16.45,0,*77
1501545931.66,27547,21.06,75008.8,9.03,-15.89,-16.37,0,*72
1501545932.87,27548,21.06,75014.0,9.03,-15.89,-16.37,0,*7D
1501545934.06,27549,21.06,75014.0,9.03,-15.99,-16.45,0,*78
1501545935.24,27550,21.06,75014.0,9.03,-15.99,-16.37,0,*75
1501545936.49,27551,21.06,75010.0,9.03,-15.89,-16.31,0,*73
1501545937.7,27552,21.06,75014.5,9.03,-15.99,-16.51,0,*77
1501545938.94,27553,21.06,75010.8,9.03,-15.89,-16.31,0,*71
1501545940.15,27554,21.06,75010.5,9.03,-15.99,-16.51,0,*71
1501545941.41,27555,21.06,75010.0,9.01,-16.13,-16.59,0,*7B
1501545942.67,27556,21.06,75014.3,9.01,-16.13,-16.59,0,*78
1501545943.86,27557,21.06,75014.8,9.03,-16.03,-16.45,0,*77
1501545945.07,27558,21.06,75012.8,9.03,-16.03,-16.51,0,*7D
1501545946.29,27559,21.06,75010.0,9.01,-16.03,-16.45,0,*7B
1501545947.5,27560,21.06,75014.5,9.03,-15.99,-16.51,0,*76
1501545948.71,27561,21.06,75010.3,9.05,-15.95,-16.45,0,*78
1501545949.93,27562,21.06,75012.3,9.03,-16.03,-16.51,0,*74
1501545951.11,27563,21.06,75008.5,9.03,-15.99,-16.45,0,*70
1501545952.33,27564,21.06,75010.0,9.03,-15.85,-16.37,0,*7F
1501545953.58,27565,21.06,75008.5,9.01,-15.85,-16.37,0,*7C
1501545954.79,27566,21.06,75012.0,9.03,-15.89,-16.45,0,*74
1501545956.01,27567,21.06,75008.3,9.03,-15.89,-16.45,0,*75
1501545957.28,27568,21.06,75008.0,9.01,-15.85,-16.31,0,*77
1501545958.5,27569,21.06,75010.5,9.03,-15.85,-16.37,0,*72
1501545959.75,27570,21.06,75010.3,9.01,-15.71,-16.23,0,*76
1501545960.97,27571,21.06,75012.0,9.03,-15.75,-16.23,0,*71
1501545962.19,27572,21.06,75008.3,9.03,-15.71,-16.23,0,*76
1501545963.46,27573,21.06,75008.0,9.01,-15.85,-16.23,0,*7E
1501545964.67,27574,21.06,75012.8,9.03,-15.99,-16.51,0,*73
1501545965.85,27575,21.06,75010.8,9.03,-15.99,-16.45,0,*77
1501545967.12,27576,21.06,75010.3,9.05,-15.81,-16.27,0,*7F
1501545968.37,27577,21.06,75014.3,9.05,-15.71,-16.17,0,*72
1501545969.58,27578,21.06,75008.5,9.03,-15.85,-16.37,0,*72
1501545970.83,27579,21.06,75010.5,9.03,-15.85,-16.23,0,*76
1501545972.02,27580,21.06,75014.0,9.03,-15.99,-16.59,0,*70
1501545973.27,27581,21.06,75012.0,9.05,-16.09,-16.59,0,*7D
1501545974.49,27582,21.06,75010.3,9.03,-16.13,-16.45,0,*7E
1501545975.71,27583,21.06,75012.8,9.05,-15.95,-16.41,0,*70
1501545976.96,27584,21.06,75014.0,9.05,-15.71,-16.17,0,*7E
1501545978.21,27585,21.06,75012.8,9.05,-15.71,-16.17,0,*7F
1501545979.45,27586,21.06,75010.8,9.05,-15.71,-16.17,0,*7C
1501545980.72,27587,21.06,75012.0,9.05,-15.81,-16.31,0,*76
1501545981.93,27588,21.06,75012.0,9.03,-16.03,-16.51,0,*70
1501545983.15,27589,21.06,75014.0,9.03,-15.89,-16.37,0,*70
1501545984.37,27590,21.06,75014.0,9.03,-15.89,-16.45,0,*7D
1501545985.55,27591,21.06,75016.3,9.03,-15.99,-16.45,0,*7D
1501545986.77,27592,21.06,75014.0,9.03,-15.89,-16.45,0,*7F
1501545988.0,27593,21.06,75010.8,9.05,-15.85,-16.45,0,*74
1501545989.22,27594,21.06,75014.0,9.05,-15.95,-16.45,0,*72
1501545990.4,27595,21.06,75010.8,9.03,-15.99,-16.37,0,*7C
1501545991.58,27596,21.06,75012.3,9.03,-15.99,-16.45,0,*7A
1501545992.79,27597,21.06,75010.8,9.05,-15.99,-16.45,0,*7D
1501545994.01,27598,21.06,75014.0,9.03,-16.03,-16.51,0,*71
1501545995.19,27599,21.06,75012.5,9.03,-15.99,-16.45,0,*75
1501545996.37,27600,21.06,75014.8,9.03,-15.99,-16.37,0,*73
1501545997.59,27601,21.06,75014.3,9.03,-15.89,-16.37,0,*73
1501545998.84,27602,21.06,75014.5,9.05,-15.85,-16.41,0,*7B
1501546000.04,27603,21.06,75012.8,9.05,-15.99,-16.45,0,*73
1501546001.25,27604,21.06,75014.0,9.05,-15.99,-16.45,0,*74
1501546002.47,27605,21.06,75014.8,9.05,-15.95,-16.41,0,*7D
1501546003.73,27606,21.06,75014.5,9.05,-15.81,-16.27,0,*7B
1501546004.98,27607,21.06,75012.5,9.05,-15.67,-16.13,0,*75
1501546006.24,27608,21.06,75014.5,9.05,-15.57,-16.13,0,*79
1501546007.47,27609,21.06,75012.5,9.03,-15.75,-16.23,0,*7D
1501546008.68,27610,21.06,75014.8,9.05,-15.99,-16.41,0,*75
1501546009.88,27611,21.06,75014.3,9.05,-15.99,-16.45,0,*70
1501546011.11,27612,21.06,75014.3,9.03,-16.13,-16.59,0,*79
1501546012.3,27613,21.06,75012.5,9.03,-15.99,-16.45,0,*74
1501546013.51,27614,21.06,75016.5,9.05,-15.95,-16.45,0,*79
1501546014.76,27615,21.06,75014.8,9.05,-16.13,-16.59,0,*78
1501546016.01,27616,21.06,75016.0,9.05,-16.17,-16.59,0,*7F
1501546017.26,27617,21.06,75012.3,9.03,-16.13,-16.65,0,*73
1501546018.51,27618,21.06,75012.5,9.03,-16.17,-16.65,0,*78
1501546019.75,27619,21.06,75012.3,9.03,-16.17,-16.65,0,*79
1501546021.0,27620,21.06,75012.5,9.03,-16.13,-16.65,0,*77
1501546022.18,27621,21.06,75012.8,9.03,-15.99,-16.45,0,*75
1501546023.43,27622,21.06,75012.0,9.01,-15.85,-16.37,0,*7C
1501546024.65,27623,21.06,75010.8,9.03,-15.89,-16.37,0,*73
1501546025.86,27624,21.06,75010.5,9.05,-15.95,-16.45,0,*7A
1501546027.07,27625,21.06,75014.3,9.05,-15.99,-16.41,0,*73
1501546028.31,27626,21.06,75010.8,9.05,-15.85,-16.45,0,*79
1501546029.56,27627,21.06,75008.5,9.03,-15.85,-16.31,0,*7D
1501546030.77,27628,21.06,75008.8,9.03,-16.03,-16.51,0,*79
1501546032.0,27629,21.06,75008.8,9.03,-16.13,-16.59,0,*71
1501546033.25,27630,21.06,75010.3,9.01,-16.03,-16.51,0,*72
1501546034.46,27631,21.06,75008.3,9.03,-15.99,-16.51,0,*71
1501546035.68,27632,21.06,75008.3,9.03,-16.13,-16.59,0,*7B
1501546036.92,27633,21.06,75008.5,9.01,-15.99,-16.51,0,*71
1501546038.14,27634,21.06,75006.5,9.05,-15.95,-16.45,0,*7B
1501546039.38,27635,21.06,75008.3,9.01,-15.99,-16.51,0,*77
1501546040.56,27636,21.06,75008.0,9.03,-15.99,-16.45,0,*73
1501546041.78,27637,21.06,75004.0,9.03,-15.85,-16.37,0,*7A
1501546043.02,27638,21.06,75008.0,9.03,-15.85,-16.31,0,*73
1501546044.24,27639,21.06,75010.3,9.03,-15.89,-16.37,0,*78
1501546045.48,27640,21.06,75004.3,9.03,-15.89,-16.31,0,*70
1501546046.7,27641,21.06,75008.3,9.03,-15.75,-16.31,0,*72
1501546047.93,27642,21.06,75008.5,9.03,-16.13,-16.59,0,*7C
1501546049.15,27643,21.06,75008.0,9.01,-15.99,-16.45,0,*73
1501546050.39,27644,21.06,75006.5,9.05,-15.95,-16.31,0,*7F
1501546051.63,27645,21.06,75006.5,9.03,-15.85,-16.31,0,*79
1501546052.85,27646,21.06,75008.0,9.03,-15.71,-16.17,0,*75
1501546054.07,27647,21.06,75008.3,9.03,-15.71,-16.13,0,*70
1501546055.32,27648,21.06,75010.3,9.03,-15.85,-16.23,0,*77
1501546056.54,27649,21.06,75010.5,9.03,-15.85,-16.37,0,*73
1501546057.72,27650,21.06,75010.8,9.03,-15.99,-16.45,0,*73
1501546058.93,27651,21.06,75012.3,9.05,-15.99,-16.45,0,*74
1501546060.13,27652,21.06,75012.0,9.05,-15.99,-16.45,0,*77
1501546061.35,27653,21.06,75010.0,9.03,-15.85,-16.37,0,*78
1501546062.59,27654,21.06,75012.3,9.05,-15.85,-16.41,0,*78
1501546063.81,27655,21.06,75014.5,9.05,-15.95,-16.55,0,*7D
1501546065.03,27656,21.06,75008.5,9.05,-15.95,-16.55,0,*7E
1501546066.24,27657,21.06,75010.5,9.09,-15.95,-16.41,0,*76
1501546067.45,27658,21.06,75010.0,9.05,-15.99,-16.55,0,*7C
1501546068.66,27659,21.06,75010.8,9.05,-15.95,-16.45,0,*70
1501546069.93,27660,21.06,75014.3,9.05,-15.81,-16.31,0,*7C
1501546071.19,27661,21.06,75014.5,9.05,-15.81,-16.31,0,*7D
1501546072.4,27662,21.06,75008.5,9.05,-15.95,-16.45,0,*78
1501546073.61,27663,21.06,75014.3,9.05,-15.99,-16.45,0,*75
1501546074.79,27664,21.06,75012.3,9.03,-15.99,-16.45,0,*74
1501546075.99,27665,21.06,75014.3,9.03,-16.03,-16.59,0,*78
1501546077.2,27666,21.06,75010.0,9.05,-15.99,-16.45,0,*70
1501546078.4,27667,21.06,75014.0,9.05,-15.99,-16.45,0,*71
1501546079.68,27668,21.06,75008.8,9.05,-16.13,-16.69,0,*71
1501546080.93,27669,21.06,75008.3,9.05,-16.09,-16.59,0,*78
1501546082.18,27670,21.06,75008.5,9.05,-16.09,-16.59,0,*70
1501546083.36,27671,21.06,75008.8,9.03,-15.99,-16.45,0,*70
1501546084.61,27672,21.06,75008.8,9.03,-15.85,-16.31,0,*7D
1501546085.83,27673,21.06,75010.3,9.03,-15.85,-16.37,0,*7A
1501546087.05,27674,21.06,75010.0,9.05,-15.95,-16.41,0,*7B
1501546088.27,27675,21.06,75010.3,9.05,-15.95,-16.41,0,*7A
1501546089.53,27676,21.06,75010.5,9.05,-15.85,-16.27,0,*78
1501546090.75,27677,21.06,75008.8,9.03,-15.89,-16.37,0,*72
1501546092.02,27678,21.06,75012.5,9.05,-15.81,-16.27,0,*72
1501546093.23,27679,21.06,75008.3,9.05,-15.95,-16.45,0,*72
1501546094.48,27680,21.06,75010.8,9.05,-16.09,-16.55,0,*73
1501546095.69,27681,21.06,75012.8,9.05,-15.99,-16.55,0,*78
1501546096.94,27682,21.06,75008.5,9.05,-16.13,-16.59,0,*76
1501546098.19,27683,21.06,75010.5,9.03,-16.17,-16.65,0,*7A
1501546099.44,27684,21.06,75012.3,9.03,-16.13,-16.65,0,*79